Regional Weather Roundup
Issued by NWS Memphis, TN

Home | Current Version | Previous Version | Text Only | Print | Product List | Glossary On
Versions: 1 2 3 4 5 6 7 8 9 10 11 12 13 14 15 16 17 18 19 20 21 22 23 24 25 26 27 28 29 30 31 32 33 34 35 36 37 38 39 40 41 42 43 44 45 46 47 48 49 50
963
ASUS44 KMEG 132210
RWRMEG
MEMPHIS CWA HOURLY WEATHER ROUNDUP
NATIONAL WEATHER SERVICE MEMPHIS TN
400 PM CST SAT FEB 13 2016

...WEST TENNESSEE...

CITY           SKY/WX    TMP DP  RH WIND       PRES   REMARKS
MEMPHIS INTL   MOSUNNY   38   5  25 NE10      30.46F WCI  31
NWS MEMPHIS      N/A     35 N/A N/A MISG        N/A
JACKSON        CLOUDY    33   6  32 N7        30.49F WCI  27
LEXINGTON      SUNNY     30   0  27 NE7       30.47F WCI  23
DYERSBURG      CLOUDY    28   5  37 NE7       30.54S WCI  21
UNION CITY     PTSUNNY   28   3  34 NE9       30.51S WCI  20
PARIS          MOSUNNY   27   3  36 NE8       30.50F WCI  18


...EASTERN ARKANSAS...

CITY           SKY/WX    TMP DP  RH WIND       PRES   REMARKS
JONESBORO      PTSUNNY   31   7  36 E13       30.50F WCI  21
WEST MEMPHIS   SUNNY     37   9  31 NE9       30.46F WCI  30
BATESVILLE     MOSUNNY   36   3  25 NE8       30.47F WCI  29
NEWPORT        SUNNY     34   5  29 E9        30.50F WCI  27
WALNUT RIDGE   CLOUDY    32   5  32 E13       30.51F WCI  22
BLYTHEVILLE    CLOUDY    32   9  38 NE10      30.53S WCI  24
SEARCY         CLOUDY    37  10  32 NE12      30.48F WCI  29
STUTTGART      SUNNY     39  10  30 E10       30.46F WCI  32
PINE BLUFF     SUNNY     42   8  24 E9        30.44F
MONTICELLO     SUNNY     46  11  24 NE9       30.42F


...NORTH MISSISSIPPI...

CITY           SKY/WX    TMP DP  RH WIND       PRES   REMARKS
TUPELO         SUNNY     41   5  22 N13       30.45F
OXFORD         SUNNY     41   5  22 NE10      30.44F
OLIVE BRANCH   MOSUNNY   36   7  30 NE12      30.44F WCI  27
TUNICA         SUNNY     37   9  30 N8        30.47F WCI  31
CORINTH        SUNNY     37   3  23 NE7       30.46S WCI  32
GREENWOOD      MOSUNNY   48   7  18 E8        30.41F
COLUMBUS       SUNNY     46   9  22 N13       30.41F
STARKVILLE     FAIR      45  14  29 N8        30.42F
GOLDEN TRIANGL SUNNY     46  10  23 N12       30.42S


...SOUTHEAST MISSOURI...

CITY           SKY/WX    TMP DP  RH WIND       PRES   REMARKS
WEST PLAINS    CLOUDY    32  -2  23 E9        30.41F WCI  24
POPLAR BLUFF   CLOUDY    26   4  38 E8        30.53S WCI  18
CAPE GIRARDEAU CLOUDY    27   3  35 NE7       30.53F WCI  19


...NORTHWEST ALABAMA...

CITY           SKY/WX    TMP DP  RH WIND       PRES   REMARKS
MUSCLE SHOALS  SUNNY     39   4  23 NE6       30.46F WCI  35


...MIDDLE TENNESSEE...

CITY           SKY/WX    TMP DP  RH WIND       PRES   REMARKS
NASHVILLE      PTSUNNY   32   1  26 N8        30.49F WCI  25
CLARKSVILLE    CLOUDY    27   1  32 VRB5      30.52S WCI  22
COLUMBIA       SUNNY     34   3  27 NW6       30.45S WCI  29


...WESTERN KENTUCKY...

CITY           SKY/WX    TMP DP  RH WIND       PRES   REMARKS
PADUCAH        CLOUDY    28   4  35 NE6       30.52F WCI  22
FORT CAMPBELL  CLOUDY    27   2  34 N6        30.50F WCI  21


...CENTRAL ARKANSAS...

CITY           SKY/WX    TMP DP  RH WIND       PRES   REMARKS
LITTLE ROCK    MOSUNNY   40   8  26 SE13      30.45F WCI  32


SKY/WX REPORTED AS FAIR MEANS FEW OR NO CLOUDS BELOW
12 THOUSAND FEET.





USA.gov is the U.S. government's official web portal to all federal, state and local government web resources and services.